Retour au catalogue

QIANFAN-143

ActifCommunicationsPO
NORAD 69089·PAYLOAD·🇨🇳 China

Lancé May 12, 2026 depuis Taiyuan Satellite Launch Center

Loading…

Prochains Passages (prochaines 24 heures)

TLE

FraisSource: Space-Track

Époque: Sep 14, 2026, 14:10 UTC

1 69089U 26104S   26257.59088379  .00000101  00000-0  13797-3 0  9998
2 69089  88.9914 332.3235 0001981 106.1926 253.9443 13.51026711 17249

Suivez QIANFAN-143 en temps réel avec AllMySat

Download on the App Store